This is the latest recevied weather packets stored in our database for station/object KG5APU. If no packets are shown the sender has not sent any weather packets the latest 10 day(s).
| Time | Temp. | Humidity | Pressure | Rain* | Wind** | Luminosity | Snow |
|---|---|---|---|---|---|---|---|
| 1788367987 | 32.78° C | 59% | 1017 hPa | 0 mm | - | 714 W/m² | - |
| 1788367382 | 32.78° C | 58% | 1017.2 hPa | 0 mm | - | 693 W/m² | - |
| 1788366776 | 32.78° C | 60% | 1017.1 hPa | 0 mm | - | 672 W/m² | - |
| 1788366176 | 32.22° C | 60% | 1017.1 hPa | 0 mm | - | 644 W/m² | - |
| 1788365572 | 31.67° C | 61% | 1017.2 hPa | 0 mm | - | 621 W/m² | - |
| 1788364968 | 32.78° C | 60% | 1017.2 hPa | 0 mm | - | 594 W/m² | - |
| 1788364365 | 32.22° C | 62% | 1017.4 hPa | 0 mm | - | 567 W/m² | - |
| 1788363762 | 31.67° C | 64% | 1017.2 hPa | 0 mm | - | 536 W/m² | - |
| 1788363161 | 30.56° C | 67% | 1017.2 hPa | 0 mm | - | 509 W/m² | - |
| 1788362559 | 31.11° C | 66% | 1017.1 hPa | 0 mm | - | 477 W/m² | - |
| 1788361954 | 30° C | 69% | 1017.2 hPa | 0 mm | - | 443 W/m² | - |
| 1788361351 | 30.56° C | 69% | 1017.2 hPa | 0 mm | - | 430 W/m² | - |
| 1788360750 | 30° C | 70% | 1017.1 hPa | 0 mm | - | 384 W/m² | - |
| 1788360147 | 30.56° C | 68% | 1017.2 hPa | 0 mm | - | 351 W/m² | - |
| 1788359544 | 30° C | 71% | 1017.2 hPa | 0 mm | - | 152 W/m² | - |
| 1788358941 | 30° C | 71% | 1016.9 hPa | 0 mm | - | 231 W/m² | - |
| 1788358337 | 29.44° C | 72% | 1017.1 hPa | 0 mm | - | 213 W/m² | - |
| 1788357732 | 29.44° C | 72% | 1017.2 hPa | 0 mm | - | 196 W/m² | - |
| 1788357127 | 28.89° C | 73% | 1016.9 hPa | 0 mm | - | 183 W/m² | - |
| 1788356521 | 28.89° C | 74% | 1016.9 hPa | 0 mm | - | 156 W/m² | - |
| 1788355916 | 28.33° C | 75% | 1017.1 hPa | 0 mm | - | 129 W/m² | - |
| 1788355313 | 28.33° C | 74% | 1017 hPa | 0 mm | - | 103 W/m² | - |
| 1788354710 | 27.78° C | 74% | 1016.7 hPa | 0 mm | - | 85 W/m² | - |
| 1788354107 | 27.78° C | 75% | 1016.8 hPa | 0 mm | - | 65 W/m² | - |
| 1788353504 | 27.22° C | 75% | 1016.8 hPa | 0 mm | - | 48 W/m² | - |
* Rain latest hour (hover to see other rain measurements)
** Current wind speed in m/s (hover to see current wind gust speed)